MCMWTC BRIDGEPORT, CA, CA

7:58 AM PDT on May 29, 2017 (GMT -0700)
MCMWTC BRIDGEPORT, CA

Weather History for KBAN - February, 2014

Change the Weather History Date:

Wednesday, February 5, 2014

  Actual Average (KTVL) Record (KTVL)
Temperature  
Mean Temperature 20 °F -  
Max Temperature 36 °F 41 °F 60 °F (2015)
Min Temperature 3 °F 19 °F -19 °F (1989)
Degree Days  
Heating Degree Days 46    
Moisture  
Dew Point 10 °F    
Average Humidity 63    
Maximum Humidity 83    
Minimum Humidity 37    
Precipitation  
Precipitation 0.00 in - - ()
Sea Level Pressure  
Sea Level Pressure 30.08 in    
Wind  
Wind Speed 5 mph (SW)    
Max Wind Speed 17 mph    
Max Gust Speed 25 mph    
Visibility 10 miles    
Events      
Averages and records for this station are not official NWS values.
T = Trace of Precipitation, MM = Missing Value Source: NWS Daily Summary

Daily Weather History Graph

Daily Weather History Graph

Search for Another Location

Airport or City:

Trip Planner

Search our weather history database for the weather conditions in past years. The results will help you decide how hot, cold, wet, or windy it might be!

Date:

Astronomy

Feb. 05, 2014 Rise Set
Actual Time 6:59 AM PST 5:25 PM PST
Civil Twilight 6:31 AM PST 5:52 PM PST
Nautical Twilight 6:00 AM PST 6:24 PM PST
Astronomical Twilight 5:29 AM PST 6:55 PM PST
Moon 10:23 AM PST (2/5) No Moon Set
Length of Visible Light 11h 21m
Length of Day
10h 25m
Waxing Crescent, 40% of the Moon is Illuminated
Feb 5
Waxing Crescent
Feb 6
First Quarter
Feb 14
Full
Feb 22
Last Quarter
Mar 1
New

Hourly Weather History & Observations

Time (PST) Temp. Windchill Dew Point Humidity Pressure Visibility Wind Dir Wind Speed Gust Speed Precip Events Conditions
12:52 AM 14.0 °F - 9.0 °F 80% 30.12 in 10.0 mi Calm Calm - N/A   Overcast
1:52 AM 15.1 °F 7.7 °F 9.0 °F 77% 30.10 in 10.0 mi NE 4.6 mph - N/A   Partly Cloudy
2:52 AM 10.9 °F - 5.0 °F 77% 30.10 in 10.0 mi Calm Calm - N/A   Clear
3:52 AM 6.1 °F - 1.0 °F 80% 30.09 in 10.0 mi Calm Calm - N/A   Clear
4:52 AM 6.1 °F - 1.0 °F 80% 30.11 in 10.0 mi Calm Calm - N/A   Scattered Clouds
5:52 AM 6.1 °F -0.9 °F -0.0 °F 76% 30.15 in 10.0 mi Variable 3.5 mph - N/A   Clear
6:52 AM 5.0 °F - -0.9 °F 76% 30.19 in 10.0 mi Calm Calm - N/A   Clear
7:20 AM 3.9 °F - -2.0 °F 76% 30.00 in 8.0 mi Calm Calm - N/A   Partly Cloudy
7:52 AM 6.1 °F - 1.0 °F 80% 30.22 in 10.0 mi Calm Calm - N/A   Partly Cloudy
8:52 AM 8.1 °F - 3.9 °F 83% 30.23 in 10.0 mi Calm Calm - N/A   Clear
9:52 AM 14.0 °F - 7.0 °F 74% 30.19 in 10.0 mi Calm Calm - N/A   Clear
10:52 AM 21.9 °F - 10.9 °F 63% 30.14 in 10.0 mi Calm Calm - N/A   Clear
11:52 AM 35.1 °F 30.1 °F 12.0 °F 39% 30.04 in 10.0 mi SE 5.8 mph - N/A   Clear
12:52 PM 36.0 °F 26.7 °F 12.0 °F 37% 30.02 in 10.0 mi WSW 15.0 mph 23.0 mph N/A   Clear
1:52 PM 36.0 °F 28.0 °F 12.0 °F 37% 30.00 in 10.0 mi SSW 11.5 mph 24.2 mph N/A   Clear
2:52 PM 36.0 °F 26.0 °F 12.9 °F 39% 30.02 in 10.0 mi WSW 17.3 mph 23.0 mph N/A   Clear
3:52 PM 35.1 °F 26.4 °F 14.0 °F 42% 30.05 in 10.0 mi SW 12.7 mph - N/A   Clear
4:52 PM 33.1 °F 23.9 °F 16.0 °F 50% 30.06 in 10.0 mi SSW 12.7 mph 20.7 mph N/A   Clear
5:52 PM 32.0 °F 20.8 °F 16.0 °F 52% 30.08 in 10.0 mi SW 17.3 mph - N/A   Clear
6:52 PM 30.9 °F 19.8 °F 17.1 °F 57% 30.09 in 10.0 mi SSW 16.1 mph 20.7 mph N/A   Partly Cloudy
7:52 PM 30.9 °F 20.2 °F 17.1 °F 57% 30.07 in 10.0 mi SW 15.0 mph 21.9 mph N/A   Overcast
8:52 PM 32.0 °F 23.0 °F 17.1 °F 54% 30.05 in 10.0 mi SW 11.5 mph 25.3 mph N/A   Mostly Cloudy
9:52 PM 30.0 °F 19.1 °F 18.0 °F 61% 30.03 in 10.0 mi SW 15.0 mph 24.2 mph N/A   Overcast
10:52 PM 28.9 °F 20.4 °F 18.0 °F 64% 29.99 in 10.0 mi WSW 9.2 mph - N/A   Scattered Clouds
11:52 PM 30.0 °F 23.2 °F 18.0 °F 61% 29.91 in 10.0 mi WSW 6.9 mph - N/A   Overcast